| time (UTC) | temp F | wind direction | speed MPH | gust MPH | rain 1hr in | rain 24hr in | rain mn in | humidity % | barometer mb |
| 20260506084549 | 46 | 52 | 15.0 | 27.0 | 0.00 | 0.00 | 0.00 | 61 | 1012.9 |
| 20260506084041 | 46 | 22 | 13.0 | 22.0 | 0.00 | 0.00 | 0.00 | 62 | 1012.9 |
| 20260506083539 | 46 | 49 | 17.0 | 22.0 | 0.00 | 0.00 | 0.00 | 64 | 1012.7 |
| 20260506083048 | 46 | 49 | 11.0 | 22.0 | 0.00 | 0.00 | 0.00 | 66 | 1012.5 |
| 20260506082540 | 46 | 41 | 15.0 | 25.0 | 0.00 | 0.00 | 0.00 | 67 | 1012.2 |
| 20260506082038 | 46 | 42 | 14.0 | 25.0 | 0.00 | 0.00 | 0.00 | 69 | 1012.0 |
| 20260506081547 | 46 | 41 | 9.0 | 22.0 | 0.00 | 0.00 | 0.00 | 71 | 1012.1 |
| 20260506081039 | 46 | 61 | 10.0 | 22.0 | 0.00 | 0.00 | 0.00 | 72 | 1012.0 |
| 20260506080539 | 46 | 57 | 12.0 | 23.0 | 0.00 | 0.00 | 0.00 | 72 | 1011.8 |
| 20260506073050 | 51 | 360 | 11.0 | 19.0 | 0.00 | 0.00 | 0.00 | 72 | 1011.6 |
| 20260506072539 | 51 | 360 | 8.0 | 13.0 | 0.00 | 0.00 | 0.00 | 71 | 1011.6 |
| 20260506072037 | 51 | 360 | 4.0 | 6.0 | 0.00 | 0.00 | 0.00 | 70 | 1011.2 |
| 20260506071549 | 52 | 360 | 1.0 | 5.0 | 0.00 | 0.00 | 0.00 | 70 | 1011.1 |
| 20260506071038 | 52 | 360 | 2.0 | 6.0 | 0.00 | 0.00 | 0.00 | 69 | 1011.1 |
| 20260506070538 | 52 | 360 | 3.0 | 6.0 | 0.00 | 0.00 | 0.00 | 69 | 1010.8 |
| 20260506062038 | 52 | 360 | 4.0 | 10.0 | 0.00 | 0.00 | 0.00 | 67 | 1010.4 |
| 20260506061552 | 52 | 360 | 4.0 | 10.0 | 0.00 | 0.00 | 0.00 | 67 | 1010.4 |
| 20260506061037 | 53 | 360 | 5.0 | 10.0 | 0.00 | 0.00 | 0.00 | 67 | 1010.3 |
| 20260506060538 | 53 | 360 | 4.0 | 6.0 | 0.00 | 0.00 | 0.00 | 67 | 1010.3 |
| 20260506051038 | 53 | 360 | 0.0 | 4.0 | 0.00 | 0.00 | 0.00 | 65 | 1010.0 |
| 20260506050538 | 53 | 360 | 0.0 | 4.0 | 0.00 | 0.00 | 0.00 | 65 | 1009.8 |
| 20260506045037 | 53 | 0 | 0.0 | 2.0 | 0.00 | 0.00 | 0.00 | 65 | 1009.8 |
| 20260506044553 | 53 | 0 | 0.0 | 2.0 | 0.00 | 0.00 | 0.00 | 65 | 1009.8 |
| 20260506044043 | 53 | 0 | 0.0 | 4.0 | 0.00 | 0.00 | 0.00 | 64 | 1009.8 |
| 20260506043538 | 53 | 0 | 0.0 | 4.0 | 0.00 | 0.00 | 0.00 | 64 | 1009.8 |
| 20260506043049 | 53 | 360 | 1.0 | 6.0 | 0.00 | 0.00 | 0.00 | 64 | 1009.8 |
| 20260506042538 | 53 | 360 | 2.0 | 6.0 | 0.00 | 0.00 | 0.00 | 64 | 1009.7 |
| 20260506042037 | 54 | 360 | 2.0 | 6.0 | 0.00 | 0.00 | 0.00 | 64 | 1009.6 |
| 20260506041550 | 54 | 360 | 1.0 | 3.0 | 0.00 | 0.00 | 0.00 | 64 | 1009.6 |
| 20260506041038 | 54 | 0 | 0.0 | 5.0 | 0.00 | 0.00 | 0.00 | 63 | 1009.7 |
| 20260506040538 | 53 | 0 | 1.0 | 6.0 | 0.00 | 0.00 | 0.00 | 63 | 1009.6 |
| 20260506040101 | 54 | 360 | 2.0 | 8.0 | 0.00 | 0.00 | 0.00 | 62 | 1009.6 |
| 20260506035538 | 54 | 360 | 4.0 | 8.0 | 0.00 | 0.00 | 0.00 | 62 | 1009.5 |
| 20260506035038 | 53 | 360 | 3.0 | 6.0 | 0.00 | 0.00 | 0.00 | 61 | 1009.3 |
| 20260506034604 | 53 | 360 | 3.0 | 6.0 | 0.00 | 0.00 | 0.00 | 60 | 1009.3 |
| 20260506034039 | 53 | 360 | 2.0 | 4.0 | 0.00 | 0.00 | 0.00 | 59 | 1009.1 |
| 20260506033539 | 54 | 360 | 1.0 | 4.0 | 0.00 | 0.00 | 0.00 | 58 | 1009.1 |
| 20260506033050 | 54 | 0 | 1.0 | 3.0 | 0.00 | 0.00 | 0.00 | 58 | 1009.1 |
| 20260506032539 | 54 | 0 | 0.0 | 3.0 | 0.00 | 0.00 | 0.00 | 57 | 1009.2 |
| 20260506032039 | 54 | 0 | 0.0 | 3.0 | 0.00 | 0.00 | 0.00 | 56 | 1008.9 |
| 20260506031557 | 54 | 360 | 1.0 | 3.0 | 0.00 | 0.00 | 0.00 | 56 | 1008.8 |
| 20260506031041 | 55 | 0 | 0.0 | 4.0 | 0.00 | 0.00 | 0.00 | 55 | 1008.9 |
| 20260506030538 | 55 | 360 | 1.0 | 5.0 | 0.00 | 0.00 | 0.00 | 55 | 1008.8 |
| 20260506030048 | 55 | 360 | 2.0 | 5.0 | 0.00 | 0.00 | 0.00 | 55 | 1008.6 |
| 20260506025538 | 56 | 360 | 3.0 | 5.0 | 0.00 | 0.00 | 0.00 | 54 | 1008.5 |
| 20260506025038 | 56 | 360 | 4.0 | 5.0 | 0.00 | 0.00 | 0.00 | 54 | 1008.5 |
| 20260506024608 | 57 | 360 | 2.0 | 4.0 | 0.00 | 0.00 | 0.00 | 53 | 1008.5 |
| 20260506024038 | 57 | 360 | 2.0 | 5.0 | 0.00 | 0.00 | 0.00 | 52 | 1008.5 |
| 20260506023541 | 58 | 360 | 3.0 | 5.0 | 0.00 | 0.00 | 0.00 | 52 | 1008.4 |
| 20260506023050 | 58 | 360 | 3.0 | 5.0 | 0.00 | 0.00 | 0.00 | 52 | 1008.3 |
| 20260506022541 | 59 | 360 | 3.0 | 5.0 | 0.00 | 0.00 | 0.00 | 51 | 1008.2 |
| 20260506022039 | 59 | 360 | 2.0 | 5.0 | 0.00 | 0.00 | 0.00 | 50 | 1008.2 |
| 20260506021557 | 60 | 360 | 1.0 | 5.0 | 0.00 | 0.00 | 0.00 | 50 | 1008.2 |
| 20260506021037 | 60 | 0 | 1.0 | 8.0 | 0.00 | 0.00 | 0.00 | 49 | 1008.1 |
| 20260506020538 | 60 | 143 | 3.0 | 8.0 | 0.00 | 0.00 | 0.00 | 48 | 1008.1 |
| 20260506020049 | 61 | 167 | 3.0 | 9.0 | 0.00 | 0.00 | 0.00 | 47 | 1007.9 |
| 20260506015541 | 61 | 167 | 2.0 | 9.0 | 0.00 | 0.00 | 0.00 | 47 | 1008.0 |
| 20260506015041 | 61 | 138 | 3.0 | 9.0 | 0.00 | 0.00 | 0.00 | 46 | 1007.9 |
| 20260506014552 | 62 | 360 | 5.0 | 9.0 | 0.00 | 0.00 | 0.00 | 46 | 1007.9 |
| 20260506014039 | 62 | 360 | 3.0 | 9.0 | 0.00 | 0.00 | 0.00 | 47 | 1007.8 |
| 20260506013540 | 62 | 142 | 4.0 | 9.0 | 0.00 | 0.00 | 0.00 | 46 | 1007.8 |
| 20260506013051 | 63 | 145 | 5.0 | 12.0 | 0.00 | 0.00 | 0.00 | 45 | 1007.8 |
| 20260506012538 | 63 | 142 | 4.0 | 12.0 | 0.00 | 0.00 | 0.00 | 45 | 1007.8 |
| 20260506012038 | 63 | 360 | 6.0 | 12.0 | 0.00 | 0.00 | 0.00 | 44 | 1007.8 |
| 20260506011556 | 64 | 161 | 5.0 | 11.0 | 0.00 | 0.00 | 0.00 | 43 | 1007.7 |
| 20260506011038 | 64 | 360 | 5.0 | 11.0 | 0.00 | 0.00 | 0.00 | 43 | 1007.8 |
| 20260506010543 | 64 | 126 | 5.0 | 10.0 | 0.00 | 0.00 | 0.00 | 44 | 1007.7 |
| 20260506010056 | 65 | 169 | 4.0 | 11.0 | 0.00 | 0.00 | 0.00 | 44 | 1007.8 |
| 20260506005541 | 65 | 186 | 5.0 | 12.0 | 0.00 | 0.00 | 0.00 | 43 | 1007.8 |
| 20260506005038 | 65 | 200 | 5.0 | 12.0 | 0.00 | 0.00 | 0.00 | 42 | 1007.8 |
| 20260506004553 | 65 | 161 | 5.0 | 11.0 | 0.00 | 0.00 | 0.00 | 42 | 1007.8 |
| 20260506004038 | 65 | 190 | 5.0 | 10.0 | 0.00 | 0.00 | 0.00 | 43 | 1007.8 |
| 20260506003541 | 65 | 137 | 5.0 | 9.0 | 0.00 | 0.00 | 0.00 | 43 | 1007.8 |
| 20260506003052 | 65 | 176 | 4.0 | 11.0 | 0.00 | 0.00 | 0.00 | 43 | 1007.8 |
| 20260506002540 | 65 | 202 | 4.0 | 11.0 | 0.00 | 0.00 | 0.00 | 42 | 1007.9 |
| 20260506002041 | 65 | 211 | 6.0 | 11.0 | 0.00 | 0.00 | 0.00 | 42 | 1007.9 |
| 20260506001553 | 65 | 202 | 7.0 | 11.0 | 0.00 | 0.00 | 0.00 | 43 | 1007.9 |
| 20260506001041 | 65 | 190 | 6.0 | 10.0 | 0.00 | 0.00 | 0.00 | 42 | 1007.9 |
| 20260506000541 | 65 | 192 | 5.0 | 10.0 | 0.00 | 0.00 | 0.00 | 42 | 1008.0 |
| 20260506000101 | 65 | 173 | 4.0 | 11.0 | 0.00 | 0.00 | 0.00 | 43 | 1008.0 |
| 20260505235540 | 65 | 138 | 6.0 | 11.0 | 0.00 | 0.00 | 0.00 | 43 | 1008.0 |
| 20260505235040 | 65 | 200 | 4.0 | 9.0 | 0.00 | 0.00 | 0.00 | 43 | 1008.0 |
| 20260505234559 | 65 | 192 | 5.0 | 11.0 | 0.00 | 0.00 | 0.00 | 44 | 1008.2 |
| 20260505234038 | 65 | 202 | 4.0 | 11.0 | 0.00 | 0.00 | 0.00 | 43 | 1008.2 |
| 20260505233540 | 65 | 215 | 5.0 | 14.0 | 0.00 | 0.00 | 0.00 | 44 | 1008.2 |
| 20260505233050 | 65 | 192 | 6.0 | 14.0 | 0.00 | 0.00 | 0.00 | 43 | 1008.2 |
| 20260505232539 | 65 | 178 | 4.0 | 11.0 | 0.00 | 0.00 | 0.00 | 44 | 1008.2 |
| 20260505232038 | 65 | 180 | 6.0 | 11.0 | 0.00 | 0.00 | 0.00 | 44 | 1008.4 |
| 20260505231557 | 64 | 190 | 3.0 | 9.0 | 0.00 | 0.00 | 0.00 | 46 | 1008.4 |
| 20260505231038 | 64 | 115 | 3.0 | 9.0 | 0.00 | 0.00 | 0.00 | 46 | 1008.3 |
| 20260505230538 | 64 | 128 | 2.0 | 9.0 | 0.00 | 0.00 | 0.00 | 46 | 1008.4 |
| 20260505230047 | 64 | 0 | 3.0 | 9.0 | 0.00 | 0.00 | 0.00 | 46 | 1008.5 |
| 20260505225537 | 64 | 92 | 4.0 | 9.0 | 0.00 | 0.00 | 0.00 | 47 | 1008.5 |
| 20260505225037 | 64 | 151 | 2.0 | 8.0 | 0.00 | 0.00 | 0.00 | 46 | 1008.6 |
| 20260505224553 | 63 | 245 | 2.0 | 9.0 | 0.00 | 0.00 | 0.00 | 46 | 1008.7 |
| 20260505224035 | 63 | 122 | 4.0 | 9.0 | 0.00 | 0.00 | 0.00 | 48 | 1008.7 |
| 20260505223537 | 63 | 215 | 4.0 | 9.0 | 0.00 | 0.00 | 0.00 | 48 | 1008.7 |
| 20260505223052 | 62 | 158 | 2.0 | 9.0 | 0.00 | 0.00 | 0.00 | 50 | 1008.8 |
| 20260505222537 | 62 | 150 | 5.0 | 11.0 | 0.00 | 0.00 | 0.00 | 51 | 1008.9 |
| 20260505222037 | 61 | 99 | 5.0 | 11.0 | 0.00 | 0.00 | 0.00 | 52 | 1008.9 |
| 20260505221552 | 61 | 175 | 5.0 | 11.0 | 0.00 | 0.00 | 0.00 | 54 | 1009.0 |
| 20260505221036 | 60 | 157 | 4.0 | 11.0 | 0.00 | 0.00 | 0.00 | 56 | 1008.9 |
| 20260505220541 | 59 | 169 | 5.0 | 11.0 | 0.00 | 0.00 | 0.00 | 57 | 1009.0 |
| 20260505220053 | 59 | 150 | 5.0 | 13.0 | 0.00 | 0.00 | 0.00 | 57 | 1009.1 |
| 20260505215538 | 59 | 80 | 7.0 | 13.0 | 0.00 | 0.00 | 0.00 | 58 | 1009.2 |
| 20260505215038 | 58 | 86 | 8.0 | 13.0 | 0.00 | 0.00 | 0.00 | 61 | 1009.3 |
| 20260505214554 | 58 | 103 | 6.0 | 13.0 | 0.00 | 0.00 | 0.00 | 60 | 1009.3 |
| 20260505214037 | 57 | 360 | 9.0 | 13.0 | 0.00 | 0.00 | 0.00 | 62 | 1009.5 |
| 20260505213536 | 56 | 360 | 9.0 | 12.0 | 0.00 | 0.00 | 0.00 | 63 | 1009.5 |
| 20260505213052 | 56 | 107 | 8.0 | 13.0 | 0.00 | 0.00 | 0.00 | 62 | 1009.5 |
| 20260505212538 | 56 | 360 | 8.0 | 13.0 | 0.00 | 0.00 | 0.00 | 63 | 1009.6 |
| 20260505212041 | 56 | 360 | 8.0 | 12.0 | 0.00 | 0.00 | 0.00 | 65 | 1009.6 |
| 20260505211600 | 55 | 91 | 6.0 | 12.0 | 0.00 | 0.00 | 0.00 | 67 | 1009.8 |
| 20260505211041 | 55 | 103 | 8.0 | 12.0 | 0.00 | 0.00 | 0.00 | 67 | 1009.7 |
| 20260505210537 | 54 | 50 | 7.0 | 11.0 | 0.00 | 0.00 | 0.00 | 67 | 1009.8 |
| 20260505210054 | 54 | 69 | 7.0 | 11.0 | 0.00 | 0.00 | 0.00 | 68 | 1009.8 |
| 20260505205539 | 54 | 88 | 7.0 | 11.0 | 0.00 | 0.00 | 0.00 | 68 | 1009.9 |
| 20260505205038 | 54 | 90 | 6.0 | 12.0 | 0.00 | 0.00 | 0.00 | 67 | 1009.9 |
| 20260505204557 | 54 | 86 | 6.0 | 12.0 | 0.00 | 0.00 | 0.00 | 66 | 1009.9 |
| 20260505204037 | 54 | 89 | 7.0 | 12.0 | 0.00 | 0.00 | 0.00 | 66 | 1009.8 |
| 20260505203539 | 54 | 82 | 7.0 | 13.0 | 0.00 | 0.00 | 0.00 | 65 | 1010.0 |
| 20260505203055 | 54 | 360 | 8.0 | 16.0 | 0.00 | 0.00 | 0.00 | 63 | 1010.2 |
| 20260505202544 | 55 | 51 | 7.0 | 16.0 | 0.00 | 0.00 | 0.00 | 62 | 1010.4 |
| 20260505202042 | 55 | 360 | 10.0 | 16.0 | 0.00 | 0.00 | 0.00 | 59 | 1010.4 |
| 20260505201556 | 57 | 360 | 8.0 | 12.0 | 0.00 | 0.00 | 0.00 | 56 | 1010.4 |
| 20260505201038 | 58 | 23 | 4.0 | 10.0 | 0.00 | 0.00 | 0.00 | 52 | 1010.4 |
| 20260505200537 | 58 | 77 | 5.0 | 9.0 | 0.00 | 0.00 | 0.00 | 52 | 1010.3 |
| 20260505200051 | 58 | 100 | 2.0 | 7.0 | 0.00 | 0.00 | 0.00 | 51 | 1010.2 |
| 20260505195540 | 58 | 121 | 3.0 | 11.0 | 0.00 | 0.00 | 0.00 | 51 | 1010.2 |
| 20260505195041 | 58 | 121 | 3.0 | 13.0 | 0.00 | 0.00 | 0.00 | 51 | 1010.1 |
| 20260505194606 | 58 | 171 | 7.0 | 13.0 | 0.00 | 0.00 | 0.00 | 51 | 1009.9 |
| 20260505194041 | 58 | 147 | 7.0 | 13.0 | 0.00 | 0.00 | 0.00 | 51 | 1009.8 |
| 20260505193540 | 58 | 140 | 7.0 | 13.0 | 0.00 | 0.00 | 0.00 | 51 | 1009.8 |
| 20260505193052 | 58 | 153 | 6.0 | 15.0 | 0.00 | 0.00 | 0.00 | 51 | 1009.8 |
| 20260505192538 | 58 | 201 | 7.0 | 15.0 | 0.00 | 0.00 | 0.00 | 51 | 1009.8 |
| 20260505192040 | 58 | 157 | 7.0 | 15.0 | 0.00 | 0.00 | 0.00 | 52 | 1009.7 |
| 20260505191547 | 58 | 132 | 8.0 | 16.0 | 0.00 | 0.00 | 0.00 | 51 | 1009.7 |
| 20260505191038 | 58 | 188 | 7.0 | 16.0 | 0.00 | 0.00 | 0.00 | 51 | 1009.7 |
| 20260505190540 | 58 | 143 | 10.0 | 18.0 | 0.00 | 0.00 | 0.00 | 51 | 1009.6 |
| 20260505190047 | 58 | 163 | 10.0 | 21.0 | 0.00 | 0.00 | 0.00 | 51 | 1009.6 |
| 20260505185538 | 58 | 179 | 10.0 | 21.0 | 0.00 | 0.00 | 0.00 | 52 | 1009.5 |
| 20260505185038 | 58 | 163 | 9.0 | 17.0 | 0.00 | 0.00 | 0.00 | 53 | 1009.6 |
| 20260505184549 | 57 | 141 | 10.0 | 17.0 | 0.00 | 0.00 | 0.00 | 53 | 1009.6 |
| 20260505184038 | 57 | 145 | 7.0 | 18.0 | 0.00 | 0.00 | 0.00 | 53 | 1009.7 |
| 20260505183537 | 57 | 132 | 10.0 | 18.0 | 0.00 | 0.00 | 0.00 | 53 | 1009.7 |
| 20260505183053 | 57 | 142 | 8.0 | 18.0 | 0.00 | 0.00 | 0.00 | 54 | 1009.7 |
| 20260505182541 | 56 | 186 | 8.0 | 18.0 | 0.00 | 0.00 | 0.00 | 54 | 1009.8 |
| 20260505182044 | 56 | 167 | 10.0 | 18.0 | 0.00 | 0.00 | 0.00 | 53 | 1009.8 |
| 20260505181558 | 56 | 221 | 9.0 | 18.0 | 0.00 | 0.00 | 0.00 | 53 | 1009.8 |
| 20260505181039 | 56 | 171 | 10.0 | 18.0 | 0.00 | 0.00 | 0.00 | 54 | 1009.8 |
| 20260505180540 | 56 | 144 | 8.0 | 17.0 | 0.00 | 0.00 | 0.00 | 55 | 1009.7 |
| 20260505180053 | 56 | 157 | 9.0 | 17.0 | 0.00 | 0.00 | 0.00 | 54 | 1009.8 |
| 20260505175540 | 56 | 148 | 11.0 | 17.0 | 0.00 | 0.00 | 0.00 | 55 | 1009.8 |
| 20260505175040 | 56 | 115 | 11.0 | 18.0 | 0.00 | 0.00 | 0.00 | 54 | 1009.8 |
| 20260505174554 | 56 | 136 | 8.0 | 18.0 | 0.00 | 0.00 | 0.00 | 54 | 1009.9 |
| 20260505174040 | 57 | 155 | 9.0 | 17.0 | 0.00 | 0.00 | 0.00 | 54 | 1009.9 |
| 20260505173537 | 57 | 171 | 10.0 | 17.0 | 0.00 | 0.00 | 0.00 | 54 | 1009.8 |
| 20260505173052 | 57 | 77 | 10.0 | 17.0 | 0.00 | 0.00 | 0.00 | 54 | 1009.8 |
| 20260505172539 | 57 | 151 | 9.0 | 17.0 | 0.00 | 0.00 | 0.00 | 54 | 1009.8 |
| 20260505172041 | 57 | 128 | 9.0 | 17.0 | 0.00 | 0.00 | 0.00 | 54 | 1009.8 |
| 20260505171555 | 57 | 151 | 9.0 | 17.0 | 0.00 | 0.00 | 0.00 | 54 | 1009.8 |
| 20260505171042 | 56 | 137 | 10.0 | 19.0 | 0.00 | 0.00 | 0.00 | 54 | 1009.7 |
| 20260505170540 | 56 | 143 | 11.0 | 19.0 | 0.00 | 0.00 | 0.00 | 53 | 1009.6 |
| 20260505170054 | 56 | 360 | 13.0 | 20.0 | 0.00 | 0.00 | 0.00 | 53 | 1009.6 |
| 20260505165540 | 57 | 360 | 10.0 | 20.0 | 0.00 | 0.00 | 0.00 | 53 | 1009.6 |
| 20260505165041 | 57 | 169 | 11.0 | 20.0 | 0.00 | 0.00 | 0.00 | 54 | 1009.6 |
| 20260505164614 | 56 | 175 | 7.0 | 18.0 | 0.00 | 0.00 | 0.00 | 54 | 1009.5 |
| 20260505164043 | 56 | 219 | 7.0 | 17.0 | 0.00 | 0.00 | 0.00 | 54 | 1009.5 |
| 20260505163541 | 56 | 119 | 11.0 | 17.0 | 0.00 | 0.00 | 0.00 | 54 | 1009.5 |
| 20260505163053 | 56 | 360 | 9.0 | 18.0 | 0.00 | 0.00 | 0.00 | 54 | 1009.6 |
| 20260505162540 | 56 | 360 | 11.0 | 18.0 | 0.00 | 0.00 | 0.00 | 54 | 1009.5 |
| 20260505162041 | 56 | 360 | 10.0 | 18.0 | 0.00 | 0.00 | 0.00 | 54 | 1009.5 |
| 20260505161605 | 56 | 360 | 10.0 | 18.0 | 0.00 | 0.00 | 0.00 | 54 | 1009.4 |
| 20260505161040 | 56 | 360 | 10.0 | 18.0 | 0.00 | 0.00 | 0.00 | 55 | 1009.4 |
| 20260505160541 | 56 | 360 | 10.0 | 18.0 | 0.00 | 0.00 | 0.00 | 55 | 1009.4 |
| 20260505153053 | 55 | 360 | 7.0 | 16.0 | 0.00 | 0.00 | 0.00 | 57 | 1009.2 |
| 20260505152541 | 55 | 360 | 8.0 | 16.0 | 0.00 | 0.00 | 0.00 | 58 | 1009.2 |
| 20260505152040 | 55 | 360 | 8.0 | 16.0 | 0.00 | 0.00 | 0.00 | 58 | 1009.2 |
| 20260505151555 | 55 | 360 | 8.0 | 15.0 | 0.00 | 0.00 | 0.00 | 58 | 1009.1 |
| 20260505151040 | 55 | 360 | 7.0 | 15.0 | 0.00 | 0.00 | 0.00 | 58 | 1009.1 |
| 20260505150540 | 55 | 360 | 8.0 | 15.0 | 0.00 | 0.00 | 0.00 | 60 | 1009.1 |
| 20260505140537 | 54 | 360 | 3.0 | 6.0 | 0.00 | 0.00 | 0.00 | 68 | 1008.7 |
| 20260505130108 | 53 | 360 | 4.0 | 9.0 | 0.00 | 0.00 | 0.00 | 68 | 1007.9 |
| 20260505125038 | 53 | 360 | 4.0 | 9.0 | 0.00 | 0.00 | 0.00 | 67 | 1007.8 |
| 20260505124602 | 53 | 360 | 4.0 | 9.0 | 0.00 | 0.00 | 0.00 | 67 | 1007.8 |
| 20260505124040 | 53 | 360 | 3.0 | 6.0 | 0.00 | 0.00 | 0.00 | 67 | 1007.7 |
| 20260505123541 | 53 | 360 | 3.0 | 6.0 | 0.00 | 0.00 | 0.00 | 67 | 1007.6 |
| 20260505123053 | 53 | 360 | 3.0 | 6.0 | 0.00 | 0.00 | 0.00 | 66 | 1007.6 |
| 20260505122540 | 53 | 360 | 1.0 | 4.0 | 0.00 | 0.00 | 0.00 | 66 | 1007.6 |
| 20260505122040 | 53 | 360 | 1.0 | 4.0 | 0.00 | 0.00 | 0.00 | 66 | 1007.6 |
| 20260505121551 | 53 | 360 | 2.0 | 5.0 | 0.00 | 0.00 | 0.00 | 66 | 1007.6 |
| 20260505121040 | 53 | 360 | 1.0 | 5.0 | 0.00 | 0.00 | 0.00 | 66 | 1007.6 |
| 20260505120542 | 54 | 360 | 2.0 | 5.0 | 0.00 | 0.00 | 0.00 | 66 | 1007.6 |
| 20260505120109 | 54 | 360 | 2.0 | 5.0 | 0.00 | 0.00 | 0.00 | 65 | 1007.6 |
| 20260505115537 | 54 | 360 | 1.0 | 5.0 | 0.00 | 0.00 | 0.00 | 65 | 1007.6 |
| 20260505115041 | 54 | 360 | 0.0 | 2.0 | 0.00 | 0.00 | 0.00 | 65 | 1007.6 |
| 20260505114556 | 54 | 0 | 0.0 | 5.0 | 0.00 | 0.00 | 0.00 | 65 | 1007.6 |
| 20260505114038 | 54 | 360 | 0.0 | 5.0 | 0.00 | 0.00 | 0.00 | 65 | 1007.6 |
| 20260505113542 | 54 | 360 | 1.0 | 5.0 | 0.00 | 0.00 | 0.00 | 65 | 1007.5 |
| 20260505113053 | 54 | 360 | 3.0 | 5.0 | 0.00 | 0.00 | 0.00 | 65 | 1007.4 |
| 20260505112540 | 54 | 360 | 3.0 | 5.0 | 0.00 | 0.00 | 0.00 | 65 | 1007.4 |
| 20260505112040 | 54 | 360 | 3.0 | 5.0 | 0.00 | 0.00 | 0.00 | 65 | 1007.4 |
| 20260505111553 | 54 | 360 | 2.0 | 6.0 | 0.00 | 0.00 | 0.00 | 64 | 1007.4 |
| 20260505111040 | 54 | 360 | 2.0 | 6.0 | 0.00 | 0.00 | 0.00 | 64 | 1007.4 |
| 20260505110540 | 54 | 360 | 2.0 | 8.0 | 0.00 | 0.00 | 0.00 | 64 | 1007.4 |
| 20260505102038 | 55 | 360 | 3.0 | 9.0 | 0.00 | 0.00 | 0.00 | 62 | 1007.3 |
| 20260505101550 | 55 | 360 | 3.0 | 9.0 | 0.00 | 0.00 | 0.00 | 62 | 1007.4 |
| 20260505101039 | 55 | 360 | 5.0 | 9.0 | 0.00 | 0.00 | 0.00 | 62 | 1007.4 |
| 20260505100537 | 55 | 360 | 5.0 | 10.0 | 0.00 | 0.00 | 0.00 | 62 | 1007.4 |
| 20260505100047 | 55 | 360 | 6.0 | 10.0 | 0.00 | 0.00 | 0.00 | 62 | 1007.4 |
| 20260505095539 | 55 | 360 | 5.0 | 10.0 | 0.00 | 0.00 | 0.00 | 62 | 1007.5 |
| 20260505095037 | 55 | 360 | 5.0 | 9.0 | 0.00 | 0.00 | 0.00 | 62 | 1007.5 |
| 20260505094551 | 55 | 360 | 5.0 | 8.0 | 0.00 | 0.00 | 0.00 | 63 | 1007.6 |
| 20260505094037 | 55 | 360 | 4.0 | 8.0 | 0.00 | 0.00 | 0.00 | 63 | 1007.6 |
| 20260505093537 | 55 | 360 | 2.0 | 8.0 | 0.00 | 0.00 | 0.00 | 63 | 1007.6 |
| 20260505093051 | 55 | 360 | 4.0 | 8.0 | 0.00 | 0.00 | 0.00 | 63 | 1007.7 |
| 20260505092539 | 55 | 360 | 4.0 | 9.0 | 0.00 | 0.00 | 0.00 | 63 | 1007.7 |
| 20260505092038 | 55 | 360 | 3.0 | 11.0 | 0.00 | 0.00 | 0.00 | 62 | 1007.7 |
| 20260505091550 | 55 | 360 | 4.0 | 11.0 | 0.00 | 0.00 | 0.00 | 62 | 1007.7 |
| 20260505091040 | 55 | 360 | 5.0 | 11.0 | 0.00 | 0.00 | 0.00 | 62 | 1007.6 |
| 20260505090537 | 55 | 360 | 5.0 | 15.0 | 0.00 | 0.00 | 0.00 | 62 | 1007.7 |
| 20260505090052 | 55 | 360 | 6.0 | 15.0 | 0.00 | 0.00 | 0.00 | 62 | 1007.8 |
| 20260505085538 | 55 | 360 | 8.0 | 13.0 | 0.00 | 0.00 | 0.00 | 62 | 1007.8 |
| 20260505085041 | 55 | 360 | 5.0 | 14.0 | 0.00 | 0.00 | 0.00 | 62 | 1007.8 |